FW6471 Weather Reports


Display with metric or nautical units.
time (UTC)temp
F
wind
direction
speed
MPH
gust
MPH
rain 1hr
in
rain 24hr
in
rain mn
in
humidity
%
barometer
mb
20200406162605 75 108 3.0 5.0 0.00 0.31 0.00 67 1020.7
20200406162104 76 96 3.0 8.0 0.00 0.31 0.00 68 1020.7
20200406161605 76 115 2.0 5.0 0.00 0.31 0.00 69 1020.8
20200406161105 76 126 3.0 5.0 0.00 0.31 0.00 70 1020.9
20200406160604 75 135 2.0 3.0 0.00 0.31 0.00 73 1021.0
20200406160104 75 165 3.0 7.0 0.00 0.31 0.00 72 1021.0
20200406155604 74 102 2.0 3.0 0.00 0.31 0.00 74 1020.9
20200406155105 74 80 2.0 5.0 0.00 0.31 0.00 74 1021.0
20200406154604 74 44 2.0 3.0 0.00 0.31 0.00 75 1021.1
20200406154105 73 62 2.0 3.0 0.00 0.31 0.00 75 1021.2
20200406153605 73 131 2.0 6.0 0.00 0.31 0.00 76 1021.3
20200406153104 73 357 2.0 3.0 0.00 0.31 0.00 75 1021.4
20200406152604 72 131 2.0 5.0 0.00 0.31 0.00 76 1021.3
20200406152104 72 108 2.0 3.0 0.00 0.31 0.00 76 1021.3
20200406151604 72 109 1.0 5.0 0.00 0.31 0.00 77 1021.3
20200406151105 72 118 2.0 5.0 0.00 0.31 0.00 76 1021.3
20200406150604 72 131 2.0 5.0 0.00 0.31 0.00 78 1021.2
20200406150104 71 40 1.0 5.0 0.00 0.31 0.00 79 1021.2
20200406145605 71 40 3.0 7.0 0.00 0.31 0.00 78 1021.1
20200406145104 71 36 2.0 7.0 0.00 0.31 0.00 79 1021.0
20200406144605 71 76 2.0 3.0 0.00 0.31 0.00 81 1020.9
20200406144104 71 77 3.0 9.0 0.00 0.31 0.00 81 1020.8
20200406143604 71 76 1.0 3.0 0.00 0.31 0.00 82 1020.6
20200406143105 71 116 2.0 3.0 0.00 0.31 0.00 82 1020.5
20200406142605 71 3 1.0 2.0 0.00 0.31 0.00 82 1020.5
20200406142104 71 334 1.0 3.0 0.00 0.31 0.00 83 1020.5
20200406141605 70 130 1.0 5.0 0.00 0.31 0.00 84 1020.3
20200406141104 70 125 1.0 3.0 0.00 0.31 0.00 83 1020.3
20200406140605 69 102 2.0 7.0 0.00 0.31 0.00 87 1020.2
20200406140105 69 42 2.0 3.0 0.00 0.31 0.00 87 1020.3
20200406135604 68 321 3.0 5.0 0.00 0.31 0.00 87 1020.5
20200406135104 68 19 4.0 6.0 0.00 0.31 0.00 88 1020.6
20200406134604 67 316 3.0 7.0 0.00 0.31 0.00 89 1020.5
20200406134104 67 308 3.0 5.0 0.00 0.31 0.00 89 1020.5
20200406133604 67 350 1.0 5.0 0.00 0.31 0.00 92 1020.5
20200406133104 67 287 1.0 7.0 0.00 0.31 0.00 92 1020.4
20200406132605 67 294 1.0 5.0 0.00 0.31 0.00 92 1020.4
20200406132104 66 350 2.0 3.0 0.00 0.31 0.00 93 1020.4
20200406131604 66 64 1.0 3.0 0.00 0.31 0.00 93 1020.4
20200406131105 66 45 1.0 3.0 0.00 0.31 0.00 93 1020.4
20200406130604 65 326 1.0 3.0 0.00 0.31 0.00 93 1020.4
20200406130105 65 13 1.0 3.0 0.00 0.31 0.00 94 1020.3
20200406125604 65 235 1.0 8.0 0.00 0.31 0.00 94 1020.4
20200406125105 65 308 2.0 3.0 0.00 0.31 0.00 94 1020.5
20200406124605 65 299 1.0 3.0 0.00 0.31 0.00 95 1020.4
20200406124104 64 356 1.0 2.0 0.00 0.31 0.00 95 1020.3
20200406123604 64 304 1.0 2.0 0.00 0.31 0.00 95 1020.2
20200406123104 64 287 1.0 2.0 0.00 0.31 0.00 94 1020.1
20200406122604 64 76 0.0 3.0 0.00 0.31 0.00 94 1019.9
20200406122104 64 67 1.0 2.0 0.00 0.31 0.00 95 1019.8
20200406121605 64 30 0.0 1.0 0.00 0.31 0.00 96 1019.8
20200406121104 64 41 1.0 3.0 0.00 0.31 0.00 95 1019.8
20200406120604 63 320 1.0 3.0 0.00 0.31 0.00 96 1019.8
20200406120104 63 174 0.0 3.0 0.00 0.31 0.00 96 1019.7
20200406115604 63 209 1.0 2.0 0.00 0.31 0.00 96 1019.7
20200406115105 63 32 1.0 3.0 0.00 0.31 0.00 96 1019.6
20200406114604 63 34 0.0 1.0 0.00 0.31 0.00 96 1019.3
20200406114104 63 34 1.0 2.0 0.00 0.31 0.00 96 1019.3
20200406113604 63 339 0.0 2.0 0.00 0.31 0.00 96 1019.4
20200406113104 63 332 1.0 3.0 0.00 0.31 0.00 97 1019.4
20200406112605 63 313 1.0 3.0 0.00 0.31 0.00 96 1019.4
20200406112105 63 36 1.0 3.0 0.00 0.31 0.00 96 1019.3
20200406111604 63 13 0.0 2.0 0.00 0.31 0.00 96 1019.2
20200406111104 63 46 0.0 3.0 0.00 0.31 0.00 96 1019.0
20200406110604 63 18 1.0 3.0 0.00 0.31 0.00 96 1018.8
20200406110104 63 335 0.0 2.0 0.00 0.31 0.00 97 1018.8
20200406105604 63 336 0.0 1.0 0.00 0.31 0.00 97 1018.7
20200406105104 63 336 0.0 1.0 0.00 0.31 0.00 96 1018.7
20200406104605 63 336 0.0 1.0 0.00 0.31 0.00 96 1018.6
20200406104104 63 334 0.0 2.0 0.00 0.31 0.00 96 1018.5
20200406103604 63 334 0.0 1.0 0.00 0.31 0.00 96 1018.5
20200406103104 63 334 1.0 1.0 0.00 0.31 0.00 96 1018.4
20200406102604 63 334 0.0 1.0 0.00 0.31 0.00 97 1018.3
20200406102104 63 334 0.0 0.0 0.00 0.31 0.00 96 1018.3
20200406101604 63 334 0.0 1.0 0.00 0.31 0.00 97 1018.3
20200406101103 63 334 0.0 2.0 0.00 0.31 0.00 97 1018.3
20200406100604 63 334 1.0 1.0 0.00 0.31 0.00 97 1018.4
20200406100104 63 324 0.0 1.0 0.00 0.31 0.00 97 1018.4
20200406095604 63 324 0.0 1.0 0.00 0.31 0.00 97 1018.3
20200406095104 63 324 1.0 1.0 0.00 0.31 0.00 97 1018.4
20200406094604 63 306 0.0 1.0 0.00 0.31 0.00 97 1018.3
20200406094104 63 306 0.0 2.0 0.00 0.31 0.00 97 1018.2
20200406093604 63 306 0.0 1.0 0.00 0.31 0.00 97 1018.1
20200406093104 63 306 0.0 1.0 0.00 0.31 0.00 97 1018.2
20200406092604 63 306 0.0 1.0 0.00 0.31 0.00 97 1018.2
20200406092104 63 305 1.0 2.0 0.00 0.31 0.00 97 1018.2
20200406091604 63 12 1.0 2.0 0.00 0.31 0.00 97 1018.3
20200406091104 63 309 1.0 2.0 0.00 0.31 0.00 97 1018.3
20200406090604 63 325 1.0 2.0 0.00 0.31 0.00 97 1018.2
20200406090104 63 349 1.0 2.0 0.00 0.31 0.00 97 1018.2
20200406085604 63 21 0.0 1.0 0.00 0.31 0.00 97 1018.2
20200406085104 63 12 0.0 2.0 0.00 0.31 0.00 97 1018.2
20200406084604 63 320 0.0 1.0 0.00 0.31 0.00 97 1018.2
20200406084104 63 320 0.0 1.0 0.00 0.31 0.00 97 1018.2
20200406083605 63 320 1.0 3.0 0.00 0.31 0.00 97 1018.2
20200406083103 62 322 1.0 2.0 0.00 0.31 0.00 97 1018.1
20200406082604 62 322 1.0 2.0 0.00 0.31 0.00 97 1017.9
20200406082104 62 331 0.0 2.0 0.00 0.31 0.00 97 1017.9
20200406081603 62 307 1.0 3.0 0.00 0.31 0.00 97 1018.0
20200406081104 62 300 1.0 2.0 0.00 0.31 0.00 97 1018.0
20200406080604 62 290 1.0 2.0 0.00 0.31 0.00 97 1018.1
20200406080104 62 297 2.0 3.0 0.00 0.31 0.00 97 1018.2
20200406075604 62 310 1.0 3.0 0.00 0.31 0.00 97 1018.2
20200406075104 62 310 1.0 2.0 0.00 0.31 0.00 97 1018.1
20200406074604 62 310 1.0 3.0 0.00 0.31 0.00 97 1018.2
20200406074103 62 329 1.0 2.0 0.00 0.31 0.00 97 1018.2
20200406073604 62 329 1.0 1.0 0.00 0.31 0.00 97 1018.2
20200406073104 62 329 1.0 1.0 0.00 0.31 0.00 97 1018.1
20200406072604 62 329 0.0 2.0 0.00 0.31 0.00 97 1018.1
20200406072103 62 329 0.0 1.0 0.00 0.31 0.00 97 1018.1
20200406071604 62 329 0.0 2.0 0.00 0.31 0.00 97 1018.1
20200406071104 62 334 0.0 2.0 0.00 0.31 0.00 97 1018.2
20200406070604 62 334 0.0 1.0 0.00 0.31 0.00 97 1018.2
20200406070104 62 334 1.0 2.0 0.00 0.31 0.00 97 1018.3
20200406065604 62 334 0.0 0.0 0.00 0.31 0.00 97 1018.2
20200406065103 62 334 0.0 0.0 0.00 0.31 0.00 97 1018.2
20200406064604 62 334 0.0 1.0 0.00 0.31 0.00 97 1018.3
20200406064104 62 309 0.0 1.0 0.00 0.31 0.00 97 1018.3
20200406063604 62 309 0.0 2.0 0.00 0.31 0.00 97 1018.5
20200406063104 62 309 0.0 1.0 0.00 0.31 0.00 97 1018.6
20200406062604 62 309 0.0 1.0 0.00 0.31 0.00 97 1018.6
20200406062104 62 309 0.0 1.0 0.00 0.31 0.00 97 1018.6
20200406061604 62 309 0.0 2.0 0.00 0.31 0.00 97 1018.6
20200406061104 62 310 0.0 2.0 0.00 0.31 0.00 97 1018.8
20200406060603 62 310 0.0 2.0 0.00 0.31 0.00 97 1019.0
20200406060104 62 310 1.0 2.0 0.00 0.31 0.00 97 1019.0
20200406055604 62 327 1.0 3.0 0.00 0.31 0.00 97 1019.0
20200406055104 62 302 1.0 2.0 0.00 0.31 0.00 97 1019.0
20200406054603 62 302 0.0 1.0 0.00 0.31 0.00 97 1019.2
20200406054104 62 302 0.0 1.0 0.00 0.31 0.00 97 1019.2
20200406053606 62 302 0.0 1.0 0.00 0.31 0.00 96 1019.2
20200406053106 62 302 0.0 1.0 0.00 0.31 0.00 96 1019.2
20200406052606 62 302 1.0 2.0 0.00 0.31 0.00 96 1019.2
20200406052107 62 302 1.0 3.0 0.00 0.31 0.00 96 1019.2
20200406051606 62 302 1.0 2.0 0.00 0.31 0.00 96 1019.2
20200406051106 62 303 0.0 2.0 0.00 0.31 0.00 96 1019.2
20200406050606 62 304 0.0 2.0 0.00 0.31 0.00 96 1019.2
20200406050106 62 322 1.0 2.0 0.00 0.31 0.00 96 1019.2
20200406045606 62 303 2.0 3.0 0.00 0.31 0.00 96 1019.2
20200406045106 62 305 1.0 3.0 0.00 0.31 0.00 96 1019.3
20200406044606 62 15 1.0 2.0 0.00 0.31 0.00 96 1019.3
20200406044106 62 15 0.0 1.0 0.00 0.31 0.00 96 1019.4
20200406043606 62 15 1.0 2.0 0.00 0.31 0.00 96 1019.3
20200406043105 62 15 0.0 1.0 0.00 0.31 0.00 96 1019.4
20200406042606 62 14 0.0 2.0 0.00 0.31 0.00 96 1019.3
20200406042106 62 24 1.0 2.0 0.00 0.31 0.00 96 1019.4
20200406041606 62 24 0.0 1.0 0.00 0.31 0.00 96 1019.2
20200406041106 62 24 0.0 1.0 0.00 0.31 0.00 96 1019.4
20200406040606 62 25 0.0 2.0 0.00 0.31 0.00 96 1019.6
20200406040115 62 28 1.0 2.0 0.00 0.31 0.00 96 1019.5
20200406035606 62 28 1.0 3.0 0.00 0.31 0.31 96 1019.6
20200406035106 62 110 0.0 2.0 0.00 0.31 0.31 96 1019.6
20200406034606 62 34 1.0 3.0 0.00 0.31 0.31 96 1019.6
20200406034106 62 358 1.0 2.0 0.00 0.31 0.31 96 1019.6
20200406033606 62 358 0.0 1.0 0.00 0.31 0.31 96 1019.6
20200406033106 62 358 0.0 2.0 0.00 0.31 0.31 96 1019.7
20200406032606 62 32 0.0 2.0 0.00 0.31 0.31 96 1019.6
20200406032106 62 28 1.0 2.0 0.00 0.31 0.31 96 1019.6
20200406031605 62 30 0.0 2.0 0.00 0.31 0.31 96 1019.5
20200406031105 62 30 1.0 5.0 0.00 0.31 0.31 96 1019.5
20200406030606 62 353 1.0 2.0 0.00 0.31 0.31 96 1019.5
20200406030105 62 17 1.0 2.0 0.00 0.31 0.31 96 1019.4
20200406025606 62 36 1.0 2.0 0.00 0.31 0.31 96 1019.5
20200406025106 62 9 0.0 1.0 0.00 0.31 0.31 96 1019.4
20200406024606 62 16 0.0 2.0 0.00 0.31 0.31 96 1019.3
20200406024105 63 40 1.0 3.0 0.00 0.31 0.31 96 1019.2
20200406023605 63 35 1.0 3.0 0.00 0.31 0.31 96 1019.1
20200406023106 63 15 0.0 2.0 0.00 0.31 0.31 96 1019.1
20200406022606 63 46 1.0 3.0 0.00 0.31 0.31 96 1019.1
20200406022106 63 92 0.0 2.0 0.00 0.31 0.31 96 1019.0
20200406021605 63 92 1.0 3.0 0.00 0.31 0.31 96 1018.9
20200406021106 63 127 1.0 3.0 0.00 0.31 0.31 96 1018.9
20200406020606 63 108 2.0 5.0 0.00 0.31 0.31 97 1018.9
20200406020106 63 106 1.0 3.0 0.00 0.31 0.31 96 1018.9
20200406015606 63 59 1.0 1.0 0.00 0.31 0.31 96 1018.9
20200406015106 63 59 1.0 2.0 0.00 0.31 0.31 96 1018.9
20200406014606 63 60 1.0 2.0 0.01 0.31 0.31 96 1018.9
20200406014106 63 60 1.0 2.0 0.01 0.31 0.31 97 1018.8
20200406013606 63 76 1.0 2.0 0.01 0.31 0.31 97 1018.8
20200406013106 63 42 1.0 2.0 0.01 0.31 0.31 97 1018.7
20200406012606 63 41 0.0 2.0 0.01 0.31 0.31 97 1018.6
20200406012105 63 47 0.0 1.0 0.01 0.31 0.31 97 1018.6
20200406011605 63 47 0.0 1.0 0.01 0.31 0.31 97 1018.5
20200406011106 63 47 0.0 3.0 0.01 0.31 0.31 97 1018.6
20200406010606 63 38 1.0 2.0 0.01 0.31 0.31 97 1018.6
20200406010106 63 46 0.0 1.0 0.01 0.31 0.31 97 1018.5
20200406005606 63 83 1.0 2.0 0.01 0.31 0.31 97 1018.4
20200406005106 62 32 1.0 3.0 0.01 0.31 0.31 96 1018.5
20200406004605 62 31 1.0 2.0 0.00 0.30 0.30 96 1018.5
20200406004105 62 121 0.0 2.0 0.00 0.30 0.30 96 1018.4
20200406003606 62 307 0.0 1.0 0.00 0.30 0.30 96 1018.3
20200406003106 62 306 1.0 2.0 0.00 0.30 0.30 96 1018.4
20200406002606 62 309 1.0 3.0 0.00 0.30 0.30 96 1018.4
20200406002106 62 317 2.0 3.0 0.00 0.30 0.30 96 1018.3
20200406001606 62 307 2.0 3.0 0.00 0.30 0.30 96 1018.3
20200406001105 62 307 1.0 3.0 0.00 0.30 0.30 96 1018.3
20200406000606 62 325 1.0 2.0 0.00 0.30 0.30 96 1018.2
20200406000106 62 310 2.0 3.0 0.01 0.30 0.30 96 1018.2
20200405235606 62 318 1.0 2.0 0.01 0.30 0.30 96 1018.2
20200405235105 62 325 1.0 3.0 0.01 0.30 0.30 96 1018.2
20200405234606 62 303 1.0 2.0 0.01 0.30 0.30 96 1018.2
20200405234105 62 303 1.0 2.0 0.02 0.30 0.30 96 1018.1
20200405233606 62 303 0.0 3.0 0.02 0.30 0.30 96 1018.1
20200405233106 62 299 1.0 2.0 0.03 0.30 0.30 96 1018.0
20200405232606 61 295 1.0 3.0 0.03 0.30 0.30 96 1018.0
20200405232106 61 329 1.0 2.0 0.03 0.30 0.30 96 1017.9
20200405231606 61 328 1.0 2.0 0.03 0.30 0.30 96 1017.9
20200405231106 61 328 1.0 3.0 0.03 0.30 0.30 96 1017.9
20200405230606 61 315 1.0 3.0 0.04 0.30 0.30 95 1017.9
20200405230106 61 304 1.0 3.0 0.04 0.29 0.29 95 1017.9
20200405225606 61 310 1.0 3.0 0.04 0.29 0.29 96 1017.9
20200405225106 61 23 0.0 3.0 0.06 0.29 0.29 96 1017.7
20200405224605 61 7 1.0 2.0 0.07 0.29 0.29 95 1017.7
20200405224105 61 94 0.0 3.0 0.08 0.28 0.28 95 1017.8
20200405223605 61 281 1.0 3.0 0.09 0.28 0.28 95 1017.8
20200405223105 61 48 0.0 2.0 0.10 0.27 0.27 95 1017.7
20200405222606 61 67 0.0 2.0 0.10 0.27 0.27 95 1017.7
20200405222106 61 36 1.0 3.0 0.12 0.27 0.27 95 1017.7
20200405221605 61 17 1.0 2.0 0.13 0.27 0.27 95 1017.7
20200405221106 61 13 1.0 5.0 0.15 0.27 0.27 95 1017.8
20200405220606 61 45 1.0 3.0 0.15 0.26 0.26 95 1017.8
20200405220106 61 52 0.0 2.0 0.16 0.25 0.25 95 1017.8
20200405215605 61 30 1.0 3.0 0.18 0.25 0.25 95 1017.8
20200405215106 61 264 0.0 3.0 0.16 0.23 0.23 95 1017.9
20200405214606 61 303 2.0 5.0 0.17 0.22 0.22 95 1017.9
20200405214105 61 313 1.0 3.0 0.16 0.20 0.20 94 1017.9
20200405213606 61 16 2.0 5.0 0.16 0.19 0.19 94 1017.9
20200405213105 61 337 3.0 7.0 0.14 0.17 0.17 94 1017.8
20200405212606 61 324 2.0 5.0 0.15 0.17 0.17 95 1017.7
20200405212106 61 316 1.0 3.0 0.13 0.15 0.15 94 1017.6
20200405211606 61 318 2.0 3.0 0.12 0.14 0.14 94 1017.8
20200405211105 61 310 2.0 3.0 0.10 0.12 0.12 94 1017.8
20200405210606 61 90 0.0 2.0 0.09 0.11 0.11 93 1017.8
20200405210105 61 93 1.0 2.0 0.08 0.09 0.09 93 1017.8
20200405205606 61 72 0.0 1.0 0.06 0.07 0.07 92 1017.8
20200405205105 61 72 2.0 3.0 0.06 0.07 0.07 91 1017.8
20200405204605 61 289 2.0 3.0 0.05 0.05 0.05 92 1017.8
20200405204106 61 302 2.0 5.0 0.04 0.04 0.04 92 1017.8
20200405203605 61 336 3.0 6.0 0.03 0.03 0.03 92 1017.7
20200405203105 61 315 2.0 5.0 0.03 0.03 0.03 92 1017.8
20200405202605 61 310 2.0 6.0 0.02 0.02 0.02 91 1017.6
20200405202106 61 315 3.0 5.0 0.02 0.02 0.02 91 1017.7
20200405201605 61 327 2.0 6.0 0.02 0.02 0.02 91 1017.7
20200405201105 62 321 3.0 5.0 0.02 0.02 0.02 90 1017.9
20200405200605 62 323 1.0 3.0 0.02 0.02 0.02 90 1017.7
20200405200105 62 310 2.0 6.0 0.01 0.01 0.01 89 1017.8
20200405195605 62 315 1.0 3.0 0.01 0.01 0.01 89 1017.8
20200405195105 62 315 3.0 6.0 0.01 0.01 0.01 87 1017.8
20200405194606 62 315 3.0 9.0 0.00 0.00 0.00 85 1017.8
20200405194106 62 305 5.0 8.0 0.00 0.00 0.00 83 1017.9
20200405193606 63 328 6.0 12.0 0.00 0.00 0.00 82 1017.8
20200405193106 63 330 3.0 8.0 0.00 0.00 0.00 81 1017.7
20200405192605 63 312 4.0 8.0 0.00 0.00 0.00 80 1017.9
20200405192105 64 302 5.0 10.0 0.00 0.00 0.00 77 1018.0
20200405191606 64 314 5.0 9.0 0.00 0.00 0.00 75 1018.0
20200405191105 65 313 4.0 12.0 0.00 0.00 0.00 77 1018.1
20200405190605 65 313 4.0 10.0 0.00 0.00 0.00 77 1018.1
20200405190105 65 277 5.0 9.0 0.00 0.00 0.00 75 1018.2
20200405185605 65 311 5.0 9.0 0.00 0.00 0.00 74 1018.4
20200405185105 65 309 4.0 10.0 0.00 0.00 0.00 73 1018.4
20200405184605 66 296 3.0 9.0 0.00 0.00 0.00 73 1018.5
20200405184105 66 322 2.0 8.0 0.00 0.00 0.00 73 1018.6
20200405183606 66 310 5.0 9.0 0.00 0.00 0.00 74 1018.5
20200405183106 66 307 5.0 12.0 0.00 0.00 0.00 73 1018.5
20200405182605 66 309 5.0 8.0 0.00 0.00 0.00 72 1018.5
20200405182105 66 306 3.0 6.0 0.00 0.00 0.00 72 1018.5
20200405181605 66 309 2.0 3.0 0.00 0.00 0.00 74 1018.6
20200405181105 66 300 0.0 2.0 0.00 0.00 0.00 76 1018.4
20200405180605 66 315 2.0 3.0 0.00 0.00 0.00 75 1018.4
20200405180106 67 288 2.0 3.0 0.00 0.00 0.00 74 1018.2
20200405175605 67 325 2.0 5.0 0.00 0.00 0.00 71 1018.4
20200405175105 67 344 1.0 6.0 0.00 0.00 0.00 69 1018.4
20200405174605 67 300 2.0 5.0 0.00 0.00 0.00 67 1018.4
20200405174105 67 9 2.0 5.0 0.00 0.00 0.00 66 1018.4
20200405173605 67 313 4.0 8.0 0.00 0.00 0.00 66 1018.3
20200405173105 67 306 2.0 3.0 0.00 0.00 0.00 67 1018.2
20200405172605 67 317 3.0 8.0 0.00 0.00 0.00 67 1018.2
20200405172105 67 322 4.0 9.0 0.00 0.00 0.00 67 1018.1
20200405171605 68 342 5.0 8.0 0.00 0.00 0.00 67 1018.1
20200405171105 68 295 5.0 10.0 0.00 0.00 0.00 67 1018.1
20200405170605 68 308 2.0 5.0 0.00 0.00 0.00 69 1018.2
20200405170105 68 286 3.0 7.0 0.00 0.00 0.00 69 1018.2
20200405165605 68 51 2.0 9.0 0.00 0.00 0.00 69 1018.2
20200405165105 68 299 3.0 8.0 0.00 0.00 0.00 68 1018.3
20200405164605 68 315 5.0 9.0 0.00 0.00 0.00 67 1018.4
20200405164106 68 347 3.0 12.0 0.00 0.00 0.00 68 1018.6
20200405163605 68 311 4.0 9.0 0.00 0.00 0.00 68 1018.8
20200405163105 68 322 4.0 6.0 0.00 0.00 0.00 68 1019.0